Temp
21 21 21 21 21 21 21 22 22 22 22 23 23 23 23 22 22 22 22 22 22 22 22 22 22 22 22 22 22 22 22 22 22 22 22 22 22 22 22 22 22 22 22 22 22 22 22 22 22 22 22 22 22 22 22 21 21 21 21 21 22 22 22 22 22 22 23 22 22 22 21 21 21 21 21 21 21 21 21 21 21 21 21 21 21
21 21 21 22 21 22 22 22 22 22 22 23 23 23 23 22 22 22 22 23 23 23 23 23 22 22 22 22 22 22 22 22 22 22 22 22 22 22 22 22 22 22 21 22 22 22 22 22 22 22 22 22 22 22 22 22 21 21 21 21 22 22 22 22 22 22 23 22 22 22 21 21 21 21 21 21 21 21 21 21 21 21 21 21 21
22 21 21 22 21 22 22 22 22 22 23 23 23 23 22 22 22 22 23 23 23 22 22 22 22 22 22 22 21 22 22 22 22 22 22 22 22 22 22 22 22 22 21 21 22 22 22 22 22 22 22 22 22 22 22 22 21 21 21 22 22 22 22 22 22 22 22 22 22 22 21 21 21 21 21 21 21 21 21 21 21 21 21 21 21
22 21 22 22 22 22 22 22 22 23 23 23 23 22 22 22 22 23 23 23 22 22 22 22 22 22 22 22 22 22 22 22 22 21 21 21 22 22 22 21 21 21 21 21 21 21 22 22 21 22 22 22 22 22 21 22 22 21 21 21 22 22 22 21 22 22 22 22 22 21 21 21 21 21 21 21 21 21 21 21 21 21 21 21 21
22 22 22 22 22 22 22 22 22 23 23 23 22 22 22 22 22 22 23 23 22 22 21 21 21 22 22 22 22 22 22 22 22 21 21 21 22 22 22 21 21 21 21 21 21 21 21 21 21 21 21 21 22 22 21 22 22 21 21 21 22 22 22 21 21 22 22 22 21 21 21 21 21 21 21 21 21 21 21 21 21 21 21 21 21
23 22 22 22 22 22 22 22 22 23 23 23 22 22 22 22 22 23 23 23 22 21 21 21 21 21 22 22 22 22 22 22 21 21 21 21 22 21 21 21 21 21 21 21 21 21 21 21 21 21 22 22 22 21 21 21 21 21 21 21 21 22 22 21 21 21 21 22 22 22 21 21 21 21 21 21 21 21 21 21 21 21 21 21 21
23 22 22 22 21 21 22 22 23 23 23 23 22 22 22 22 22 22 23 22 21 21 21 21 21 21 22 22 22 22 22 22 21 21 21 21 21 21 21 21 21 21 21 21 21 21 21 21 21 21 22 22 22 21 21 21 21 21 21 22 22 22 21 21 21 21 21 22 22 22 21 21 21 21 21 21 21 21 21 21 21 21 21 21 21
23 23 23 22 22 22 22 22 23 23 23 23 22 22 22 22 22 22 22 21 21 21 21 21 21 22 22 22 22 22 22 22 22 22 21 21 21 21 21 21 21 21 21 21 21 21 21 21 21 22 22 22 22 21 22 22 22 22 21 22 22 21 21 21 21 21 21 22 22 21 21 21 21 21 21 21 21 21 21 21 21 21 21 21 21
24 24 23 23 23 22 22 22 23 23 23 22 22 22 22 22 22 22 22 21 21 21 21 22 21 22 22 21 21 21 21 21 21 21 21 22 22 22 22 21 21 21 21 21 21 21 21 21 21 22 22 22 22 22 22 22 22 22 22 22 22 21 21 21 22 22 22 22 22 21 21 21 21 21 21 21 21 21 21 21 21 21 21 21 21
24 24 23 23 23 22 22 23 23 23 22 22 22 22 22 22 22 22 22 21 21 21 21 21 21 22 22 21 21 21 21 21 21 21 21 21 21 22 21 21 21 21 21 21 21 21 21 21 21 22 22 22 22 22 22 22 22 22 22 22 22 22 22 21 22 22 22 22 21 21 21 21 21 21 21 21 21 21 21 21 21 21 21 21 21
24 24 23 22 23 23 23 23 23 23 22 22 22 22 22 22 22 22 22 22 21 21 21 21 21 22 22 21 21 22 21 21 21 21 21 21 21 21 21 21 21 21 21 21 21 21 21 21 21 21 21 22 22 22 22 22 22 22 22 22 22 22 22 22 22 22 22 22 21 21 21 21 21 21 21 21 21 21 21 21 21 21 21 21 21
24 23 23 22 23 23 23 23 23 22 22 22 22 22 22 22 22 22 22 21 21 21 21 22 21 21 21 21 21 22 21 21 21 21 21 21 21 21 21 21 21 21 21 21 21 21 21 21 21 21 22 22 22 21 22 22 22 22 22 22 22 22 22 22 22 22 22 22 22 22 21 21 21 21 21 21 21 21 21 21 21 21 21 21 21
24 23 23 22 23 23 23 23 23 22 22 22 22 22 22 22 22 22 22 22 21 21 22 22 22 21 21 21 21 22 22 22 21 21 21 22 21 21 21 21 21 21 21 21 21 21 21 21 21 21 22 22 22 22 22 22 22 22 22 22 22 23 22 22 22 22 22 22 22 21 21 21 21 21 21 21 21 21 21 21 21 21 21 21 21
24 23 23 22 23 23 23 23 23 22 22 22 22 22 22 22 22 22 22 22 22 21 22 22 21 21 21 21 22 22 22 22 21 22 22 22 21 21 21 21 21 21 21 21 21 21 21 21 22 22 22 22 22 22 22 22 22 22 22 22 22 23 23 23 22 22 22 22 22 22 21 22 21 21 21 21 21 21 21 21 21 21 21 21 21
24 24 23 23 23 23 23 23 23 22 22 22 22 22 22 22 22 22 22 21 22 22 21 21 21 21 21 22 22 22 22 22 21 22 22 21 21 21 21 21 21 21 21 21 21 21 21 22 22 21 22 22 22 22 22 22 23 23 23 23 22 22 23 23 23 22 22 22 22 22 22 21 21 21 21 21 21 21 21 21 21 21 21 21 21
25 24 24 23 23 23 23 23 22 22 22 22 22 22 22 22 22 22 22 22 22 22 21 21 22 22 22 21 21 22 22 22 22 22 21 21 21 21 21 21 21 21 21 21 21 21 21 22 22 22 22 22 22 22 22 23 23 23 23 23 23 23 23 23 23 23 22 22 21 22 21 21 21 21 21 21 21 21 21 21 21 21 21 21 21
25 25 25 24 23 23 23 23 22 22 22 22 22 22 22 22 22 22 22 22 22 22 22 22 22 22 22 21 21 21 21 22 22 22 21 21 21 21 21 21 21 21 21 21 22 21 22 22 22 22 22 22 22 22 23 23 23 24 23 23 24 23 23 23 23 23 22 22 21 21 21 21 21 21 21 21 21 21 21 21 21 21 21 21 21
26 26 25 24 24 23 23 23 22 22 22 22 22 22 22 22 22 22 22 22 22 22 22 22 22 22 21 21 21 21 22 22 22 22 22 22 22 22 22 21 21 21 21 21 21 22 22 22 22 23 23 23 23 23 23 23 23 24 24 24 24 23 23 24 23 23 22 22 22 22 22 21 21 21 21 21 21 21 21 21 21 21 21 21 21
27 26 25 25 24 23 23 22 22 22 22 22 22 22 22 22 22 22 22 22 22 22 22 22 22 22 21 21 22 22 21 22 22 22 22 22 22 22 22 22 22 22 22 22 22 22 22 23 23 23 23 23 23 23 23 23 24 24 24 24 24 24 23 23 23 23 22 22 22 22 22 22 21 21 21 21 21 21 21 21 21 21 21 21 21
27 26 26 25 24 23 23 22 22 22 22 22 22 22 22 22 22 22 22 22 22 22 22 22 22 22 22 22 22 22 22 22 22 22 22 22 22 22 22 22 22 22 22 22 22 22 23 23 23 23 23 23 23 23 24 24 24 24 24 24 24 24 24 24 23 23 22 22 22 22 22 22 21 21 21 21 21 21 21 21 21 21 21 21 21
27 27 26 25 24 23 23 22 22 22 22 22 22 22 22 22 22 22 22 22 22 22 22 22 22 22 22 22 22 22 22 22 22 22 22 22 22 22 22 22 22 22 22 22 23 23 23 23 23 23 23 23 24 24 24 24 24 24 24 24 24 24 24 24 24 23 22 22 22 22 22 22 21 21 21 21 21 21 21 21 21 21 21 21 21
28 26 25 25 24 23 23 23 22 23 22 22 22 22 22 22 22 22 22 22 22 22 22 22 22 22 22 22 22 22 22 22 22 22 22 22 22 22 22 22 22 22 22 23 23 23 23 23 23 23 24 24 24 24 24 24 24 24 24 24 24 24 24 24 24 23 22 22 22 22 22 22 22 21 21 21 21 21 21 21 21 21 21 21 21
28 26 25 25 24 23 23 23 22 23 23 22 22 22 22 22 22 22 22 22 22 22 22 22 22 22 22 22 22 22 22 22 22 22 22 22 22 22 22 23 23 23 23 23 23 23 23 23 23 23 23 24 24 24 24 25 25 25 25 24 24 24 24 24 24 23 22 22 22 22 22 22 22 21 21 21 21 21 21 21 21 21 21 21 21
28 27 25 25 24 24 24 23 23 23 23 22 22 22 23 22 22 22 22 22 22 22 22 22 22 22 22 22 22 22 22 22 22 22 22 22 22 22 23 23 23 23 23 23 23 23 23 23 23 23 23 23 23 24 24 25 25 25 25 25 25 25 24 24 23 23 22 22 22 22 22 22 22 21 21 21 21 21 21 21 21 21 21 21 20
28 27 26 25 25 25 24 23 23 23 23 23 23 23 23 23 23 23 22 23 22 22 22 22 23 23 23 22 22 22 22 22 22 22 22 22 22 22 23 23 23 23 22 23 23 23 23 23 23 23 23 24 24 25 25 26 26 26 26 26 26 26 25 24 23 23 22 22 22 22 22 22 22 21 21 21 21 21 21 21 21 20 20 20 20
27 27 27 25 25 25 24 24 23 24 24 23 23 23 23 23 23 23 23 23 23 22 22 23 23 23 23 23 22 23 23 22 22 23 23 22 22 22 23 23 23 23 23 23 23 23 23 23 23 24 24 24 25 26 27 27 26 26 26 26 26 26 26 25 24 23 23 23 23 22 22 22 22 21 21 21 21 21 21 21 20 20 20 20 20
27 27 27 26 25 25 24 24 23 24 24 23 23 23 23 23 23 23 23 23 23 23 22 23 23 23 24 23 23 23 23 22 23 23 23 23 23 23 23 23 23 23 23 23 23 23 23 23 23 24 25 25 26 26 27 27 26 26 26 27 27 26 26 25 24 23 23 23 23 22 22 22 22 22 21 21 21 21 21 20 20 20 20 20 20
27 27 27 27 26 25 24 24 24 24 24 24 24 24 24 24 23 23 23 23 24 23 23 23 23 23 24 23 23 23 23 23 23 23 23 23 23 23 23 23 23 23 23 23 23 23 23 23 24 24 25 26 26 26 26 26 26 26 26 26 26 26 26 26 25 24 24 24 23 23 23 23 22 22 22 21 21 21 21 21 20 21 20 20 20
27 27 28 28 27 25 25 24 24 24 24 24 24 24 24 24 24 24 24 24 23 23 23 23 24 24 24 24 23 23 23 23 23 23 23 23 23 23 23 24 24 24 24 24 24 24 24 24 25 25 26 26 26 26 26 26 26 26 26 26 26 26 26 26 25 24 24 24 24 23 23 23 23 23 22 22 21 21 21 21 21 21 21 21 21
28 28 28 28 27 26 25 25 24 24 24 24 24 24 24 24 24 25 25 25 25 25 24 23 23 23 23 24 24 24 23 23 23 23 23 24 23 23 24 24 24 24 23 24 24 24 24 25 25 25 26 26 26 26 26 26 27 26 27 27 27 26 26 26 26 25 24 24 24 24 24 24 23 23 23 22 22 21 21 21 21 21 21 21 21
28 28 28 28 28 27 26 25 25 25 25 25 24 24 25 25 25 25 25 26 26 26 25 24 23 23 23 24 24 24 23 23 23 24 24 24 23 23 23 24 24 24 24 24 24 25 25 25 25 25 26 26 26 26 27 27 27 27 27 27 27 26 26 26 26 26 25 24 24 24 24 24 24 23 23 23 23 23 22 22 22 22 22 22 22
29 28 28 28 28 27 26 26 25 25 25 25 25 25 25 25 26 26 26 26 26 26 25 25 25 24 24 24 24 24 23 23 23 24 24 23 23 24 24 24 24 24 24 25 25 25 25 25 25 25 26 26 26 27 26 27 27 27 27 27 27 27 27 27 27 26 25 24 24 24 24 24 24 24 23 23 23 23 23 23 23 23 23 23 23
29 29 28 28 29 28 26 26 26 26 26 26 26 25 25 26 26 26 26 26 26 26 26 25 25 24 24 24 24 24 23 23 23 24 24 23 24 24 24 24 25 25 25 25 25 25 25 25 25 26 26 26 27 27 27 27 27 28 28 27 27 27 27 27 27 27 26 25 25 24 24 24 24 24 24 24 23 23 23 23 23 23 23 23 23
29 29 28 29 29 28 27 26 26 26 26 26 26 26 26 26 26 26 26 26 26 26 26 25 24 24 24 24 24 24 23 23 24 24 24 24 24 24 24 25 24 24 25 25 25 25 25 25 26 26 26 26 27 27 27 27 27 28 28 27 27 27 27 27 27 27 27 26 25 25 24 24 24 24 24 24 24 24 24 24 24 24 24 24 24
29 29 29 29 29 28 27 27 26 26 26 26 26 26 26 26 26 26 26 26 26 26 26 25 24 24 24 24 24 24 24 24 24 24 24 24 24 24 24 24 24 25 25 25 25 25 25 25 26 26 26 26 27 27 27 27 27 27 28 27 27 27 27 27 27 27 27 26 26 26 25 25 25 24 24 24 24 25 25 24 24 24 24 24 24
29 29 29 29 28 27 27 27 26 26 26 26 26 26 26 26 26 26 26 26 26 26 26 25 24 24 24 24 24 24 24 24 24 24 24 24 24 24 24 24 24 25 24 25 25 25 25 25 26 26 26 27 27 27 27 27 27 27 27 27 27 27 27 27 27 27 27 26 26 26 26 26 25 25 25 25 25 25 25 25 25 25 25 25 25
29 29 29 29 28 27 27 27 27 26 26 26 26 26 26 26 26 26 26 26 26 25 25 25 25 24 24 24 24 24 24 24 24 24 24 24 24 24 24 24 24 25 24 25 25 25 25 25 26 26 26 26 27 28 28 28 28 28 28 28 27 27 27 27 27 27 27 27 27 26 26 26 26 26 25 25 25 25 25 25 25 25 25 25 25
29 29 29 28 28 28 27 27 27 26 26 26 26 26 26 26 26 27 26 25 26 26 25 25 25 25 25 24 24 24 24 24 24 24 24 24 25 24 24 24 24 24 24 25 25 25 25 25 25 26 26 26 27 28 28 28 28 28 28 28 27 27 27 27 27 27 27 27 27 27 27 27 26 26 26 26 26 26 26 26 26 25 25 26 26
29 29 29 28 28 28 27 27 26 26 26 25 25 26 26 26 26 27 26 26 26 26 25 25 25 25 25 24 24 24 25 25 24 24 24 24 24 24 24 24 24 24 24 25 25 25 25 25 25 25 26 26 27 27 28 28 28 28 28 28 27 27 27 27 27 27 27 28 28 28 28 28 27 27 27 27 27 26 26 26 26 26 25 26 26
29 29 29 28 28 28 27 27 26 26 25 25 25 26 25 26 27 27 26 26 26 26 26 25 25 25 25 24 24 24 24 25 24 24 24 24 24 24 24 24 24 24 24 24 25 25 25 25 25 25 26 26 27 27 28 28 28 28 28 28 28 27 27 27 28 28 28 28 28 28 28 28 28 28 27 28 28 27 27 27 26 26 26 26 26
29 29 28 28 28 28 27 27 27 26 25 25 25 26 26 26 27 27 27 26 26 26 26 26 26 25 25 25 24 24 24 24 24 24 24 24 24 24 24 24 24 25 24 24 25 25 25 25 25 25 26 26 27 27 28 28 28 27 28 28 28 28 28 27 28 28 28 28 28 28 28 29 28 28 28 28 28 28 27 27 27 27 26 26 27
29 28 28 28 28 28 27 27 27 26 26 25 26 26 26 27 27 27 27 27 26 26 26 26 26 25 25 25 25 24 24 24 25 24 24 24 24 24 24 24 24 24 25 24 24 24 24 25 25 25 26 26 27 28 28 27 28 28 28 28 28 28 28 28 28 29 29 29 29 29 29 29 29 29 28 28 28 28 28 28 28 27 27 27 27
29 28 28 28 28 27 27 27 27 26 26 26 26 27 26 27 27 27 28 27 27 27 26 26 26 26 25 25 25 24 24 24 24 25 24 24 24 24 24 24 24 24 25 24 24 24 24 25 25 26 26 27 27 27 27 27 28 28 28 27 27 28 28 28 29 29 29 29 29 29 29 30 30 29 29 29 28 28 29 28 28 28 27 27 27
29 28 28 28 28 27 27 27 27 26 26 26 26 27 27 27 27 27 28 28 27 27 27 26 26 26 26 25 25 25 24 24 24 24 24 24 24 25 24 24 24 24 24 25 24 24 25 25 25 26 26 27 27 28 27 28 28 27 27 27 27 28 27 28 29 29 30 30 30 30 30 30 30 30 29 29 29 29 29 29 28 28 27 27 27
29 29 29 28 28 27 26 26 27 26 26 26 26 27 27 27 27 27 27 27 27 27 27 27 26 26 26 26 25 25 25 25 25 25 24 24 24 24 25 24 24 24 24 25 25 25 25 25 26 26 26 26 27 28 28 28 28 27 27 26 27 27 27 28 29 29 30 30 31 31 31 30 30 30 30 30 30 30 30 29 28 28 28 28 27
29 29 29 29 28 28 27 27 26 26 26 26 26 27 27 27 27 27 27 27 27 27 27 27 27 27 27 26 26 25 25 25 25 25 25 24 24 24 25 24 24 25 25 25 25 25 26 26 26 26 26 26 26 27 27 28 28 27 27 27 27 27 27 28 28 28 29 30 31 31 31 31 31 30 30 30 30 30 30 30 29 28 28 28 28
30 29 29 29 29 28 27 26 26 26 26 26 26 26 26 26 26 27 27 26 27 27 27 27 27 27 27 27 26 26 26 25 25 25 25 25 24 24 24 24 24 25 25 25 25 26 26 26 26 26 26 26 26 26 27 27 28 27 28 28 28 28 28 28 28 28 29 30 30 31 31 31 31 31 31 30 30 30 31 30 30 29 29 28 28
30 30 29 29 29 28 27 26 26 26 26 26 26 26 26 26 26 26 27 26 27 27 27 27 27 27 27 27 27 26 26 25 25 25 25 25 25 24 24 24 25 25 25 25 25 26 26 26 26 25 26 26 26 26 26 26 27 27 28 28 28 29 29 29 29 29 28 29 30 31 31 32 32 31 31 31 31 30 30 30 30 30 29 28 28
30 30 30 30 29 28 27 26 26 26 26 26 26 26 25 26 26 26 27 27 27 27 27 27 27 27 27 27 26 26 26 25 25 25 25 24 25 25 25 25 25 25 25 25 25 26 26 25 25 25 25 26 26 26 26 26 26 27 27 27 27 28 28 29 29 29 29 29 29 30 31 31 31 31 31 31 31 31 30 30 30 30 29 29 28
31 30 30 30 29 28 27 27 26 26 26 26 25 25 25 25 26 26 27 27 27 27 27 27 27 27 27 27 26 26 26 25 25 25 25 24 25 25 25 25 25 25 25 25 25 25 25 25 25 25 25 25 25 26 26 26 26 26 27 27 27 27 28 28 28 29 29 29 29 30 31 31 31 31 31 31 31 31 31 30 30 30 30 29 28
31 30 30 30 29 28 27 26 26 26 26 26 25 25 25 26 26 26 27 27 27 27 27 27 27 26 26 26 26 26 26 26 25 25 25 25 25 25 25 25 25 25 25 25 25 25 25 25 25 25 25 25 25 26 26 26 26 27 27 27 27 27 28 28 28 29 29 29 29 29 31 31 31 31 31 30 31 31 31 31 30 30 30 29 28
Height
807 807 810 810 811 810 812 814 815 815 815 815 815 816 816 818 818 819 820 820 820 821 821 822 822 822 823 823 824 824 824 824 823 823 824 825 826 826 826 827 827 827 828 828 828 828 829 829 829 830 831 832 833 833 833 833 834 834 834 835 836 837 838 838 838 839 839 842 843 843 848 852 853 853 852 851 849 849 848 847 846 845 845 845 845
806 808 809 810 811 811 814 814 816 815 815 816 816 817 818 819 819 820 820 821 822 822 822 823 823 823 824 824 825 825 825 824 823 823 825 826 826 826 827 827 828 829 829 829 830 830 831 831 831 832 833 833 833 834 833 834 834 835 836 836 838 838 840 840 840 842 841 843 845 844 850 854 856 856 854 853 851 850 849 848 847 847 846 846 846
805 808 809 810 812 812 814 814 816 816 816 817 817 818 819 820 820 821 821 822 823 823 824 824 825 825 825 826 826 826 825 824 824 825 826 827 827 827 828 829 829 830 831 831 831 831 832 832 833 833 834 834 834 834 834 835 835 836 837 837 839 840 841 843 843 844 843 846 846 846 852 857 858 857 856 854 853 852 850 850 849 848 847 847 847
806 808 809 811 812 813 815 815 816 816 817 817 819 819 820 821 821 822 823 824 824 825 825 825 826 826 826 826 826 825 824 824 825 826 827 828 828 829 829 830 831 832 832 832 832 832 833 833 834 835 835 835 835 835 836 836 837 837 838 839 840 842 843 845 845 845 845 848 850 850 854 859 859 859 857 856 854 853 852 851 850 849 849 848 849
807 808 810 811 812 814 815 816 817 817 818 819 820 820 821 822 823 824 824 825 825 826 826 827 827 826 827 826 825 825 824 824 826 827 828 829 830 830 830 831 832 833 833 833 833 833 834 834 835 836 836 836 835 836 838 838 838 839 840 841 842 843 845 847 847 848 847 849 853 852 854 860 861 860 859 858 856 854 853 852 851 850 850 850 850
807 809 811 812 814 815 816 817 817 818 818 820 821 821 822 823 824 825 825 826 826 827 827 827 827 827 826 826 826 825 825 826 827 828 829 830 831 831 832 832 833 833 834 834 834 834 835 836 836 836 836 835 836 837 838 839 840 841 842 843 843 845 846 848 849 850 849 850 854 851 853 860 861 861 860 859 857 855 854 853 852 852 851 851 851
807 810 812 813 814 815 816 817 817 819 819 821 822 823 824 824 825 826 826 827 828 828 828 828 827 827 827 827 827 827 827 828 829 829 830 832 832 833 833 833 833 834 834 835 835 835 836 837 837 837 836 836 837 838 839 840 841 843 844 844 845 846 847 849 849 850 851 852 853 851 853 860 862 862 861 859 858 856 856 854 853 853 853 853 853
808 810 812 813 814 815 816 817 818 820 821 823 823 824 825 826 826 827 828 828 829 829 829 828 827 827 828 828 829 829 830 830 830 830 832 834 834 835 835 835 834 835 835 836 836 837 837 838 838 837 836 837 839 840 840 841 843 844 845 846 846 847 848 850 850 851 852 852 854 853 855 860 862 862 861 860 859 857 856 855 854 854 854 854 854
809 810 812 813 814 816 817 818 820 821 822 824 824 825 826 827 827 827 829 829 830 830 830 829 829 829 829 830 831 831 831 831 832 833 834 835 836 836 836 836 836 836 836 837 837 838 838 839 839 838 837 838 841 841 842 843 844 846 846 847 848 849 850 851 851 852 852 853 855 855 857 861 862 861 861 860 859 858 857 856 856 856 856 856 855
809 811 813 814 815 817 818 820 821 822 824 824 825 826 827 827 828 828 829 830 831 831 831 830 830 831 831 832 833 833 833 833 834 835 836 837 837 837 837 837 837 837 837 838 838 839 840 840 840 839 839 840 842 842 843 844 846 847 847 848 849 850 851 852 852 853 854 854 856 857 859 861 861 861 861 860 859 858 858 857 857 857 857 857 857
809 812 813 815 817 817 819 821 822 824 825 826 826 827 828 828 829 830 830 831 832 832 832 832 832 832 833 833 834 835 835 835 837 837 838 838 838 838 838 838 838 838 838 839 839 840 841 841 841 841 841 842 843 844 844 846 847 848 848 850 850 851 852 853 854 854 856 856 858 859 860 860 861 861 861 860 859 859 858 858 858 858 858 858 858
810 813 814 816 817 818 820 822 823 825 826 827 827 828 829 830 831 831 831 832 832 833 833 833 833 833 834 834 835 836 837 838 838 839 839 839 839 839 839 839 839 839 840 840 841 842 842 842 843 843 843 844 845 845 846 847 848 848 849 850 851 851 852 854 855 856 857 858 859 860 860 860 860 861 861 860 860 859 859 859 859 859 859 859 859
811 813 815 817 818 820 821 823 824 825 827 827 828 829 830 831 832 832 833 833 833 834 833 834 834 834 835 836 837 837 838 839 839 840 840 840 840 840 840 840 840 840 841 841 842 843 843 843 844 844 844 845 846 846 848 848 849 849 850 851 852 853 853 854 855 856 858 859 860 860 860 860 860 861 861 861 860 860 860 860 860 860 860 860 860
811 814 816 818 819 821 822 824 825 826 827 828 829 830 831 832 833 833 834 834 834 835 834 835 835 836 837 837 838 839 839 840 841 841 841 841 841 841 841 841 841 842 842 842 843 844 845 844 845 846 846 846 847 848 849 850 850 850 851 852 853 854 855 855 856 857 858 859 859 859 860 860 860 861 861 861 861 861 861 861 861 861 861 861 861
812 814 817 819 820 822 823 825 825 827 828 829 830 830 832 833 834 834 835 835 835 836 836 836 837 838 838 839 840 840 841 841 842 842 842 842 842 842 842 842 843 843 843 844 845 845 846 846 847 847 848 848 848 849 849 850 851 851 852 853 854 855 856 856 857 858 858 859 859 859 860 860 861 861 861 861 862 862 862 862 862 862 862 862 862
813 815 817 819 821 823 824 826 827 828 829 830 831 831 833 833 835 835 836 836 836 837 837 838 838 839 839 840 841 841 842 843 843 843 843 843 843 844 843 844 844 845 845 845 846 846 847 847 848 848 849 849 849 850 850 851 851 852 853 853 854 855 857 857 858 858 859 859 860 860 860 861 861 861 862 862 862 862 863 863 863 863 863 863 863
814 816 818 820 822 823 825 826 827 829 830 831 832 833 834 834 836 836 837 837 837 838 838 839 839 840 841 841 842 843 844 844 844 844 844 844 844 845 845 845 846 846 847 847 848 848 848 849 849 849 850 850 850 851 851 852 852 853 853 854 855 855 857 857 858 859 859 860 860 861 861 861 862 862 862 863 863 863 864 864 864 864 864 865 864
815 817 819 821 822 824 825 827 828 830 831 832 833 834 835 836 837 837 838 838 839 839 839 839 840 841 842 842 843 844 845 845 845 845 845 845 845 846 846 847 847 848 848 848 849 849 850 850 850 851 851 852 852 852 853 853 854 855 855 855 856 856 857 858 858 859 860 860 860 861 861 862 862 863 863 863 864 864 865 865 865 865 865 865 865
816 818 819 822 823 825 825 827 829 830 832 833 834 835 836 837 838 839 839 840 840 840 840 840 841 842 843 844 844 844 845 846 846 846 846 847 847 848 848 848 849 849 849 849 850 851 851 851 852 852 852 853 854 854 855 855 855 856 856 856 857 858 858 859 859 860 860 861 861 861 862 863 863 864 864 864 865 865 865 866 866 866 866 866 866
816 818 820 822 823 825 826 828 830 831 833 833 835 835 837 838 839 840 840 841 841 842 842 842 842 843 844 845 845 845 846 847 847 847 848 848 849 849 850 850 851 851 851 851 851 852 852 853 853 853 854 855 855 856 856 856 857 857 857 857 858 859 859 860 861 861 861 861 861 862 863 863 864 864 865 865 866 866 866 866 867 867 867 867 867
817 819 820 822 824 825 826 828 830 832 833 833 835 836 837 839 839 840 841 842 842 843 843 843 844 844 845 845 845 846 846 847 848 849 849 850 851 851 852 852 852 852 852 852 853 853 853 854 854 855 856 856 857 857 858 858 858 858 858 858 859 860 860 861 862 862 862 862 862 863 863 864 865 865 866 866 866 867 867 867 867 867 868 868 868
816 819 821 823 824 826 826 828 830 831 833 834 835 836 837 839 840 841 841 842 843 843 843 844 844 844 845 845 846 847 847 848 849 850 851 851 852 853 853 854 854 854 854 854 854 854 855 855 856 857 857 858 858 858 859 859 859 859 859 859 860 861 861 862 862 863 863 863 863 863 864 865 865 866 866 867 867 867 867 868 868 868 868 868 868
814 818 821 822 824 826 827 828 830 831 832 834 835 836 838 839 840 841 842 843 844 844 844 845 845 845 846 846 847 848 849 850 851 852 853 853 854 854 855 855 856 856 856 856 857 857 857 857 858 858 859 859 859 859 860 859 860 860 860 860 861 862 862 862 863 863 863 863 864 864 865 865 866 866 867 867 867 868 868 868 868 868 868 868 868
814 817 820 822 824 825 827 828 829 831 832 834 835 836 837 839 840 841 842 843 844 845 845 845 846 846 846 847 848 849 850 851 852 853 854 854 855 855 856 856 857 857 858 858 858 858 859 859 859 859 859 859 859 860 860 860 860 860 860 861 862 862 861 862 863 863 864 864 864 865 865 866 866 867 867 867 868 868 868 868 868 868 868 868 868
814 817 820 822 824 825 827 828 829 830 832 834 835 837 837 839 840 841 842 843 845 846 846 846 846 847 847 848 849 850 851 852 853 854 854 855 855 856 857 858 858 858 859 859 860 860 860 860 860 860 860 859 859 860 860 860 861 861 861 862 862 862 862 862 863 864 864 864 865 865 866 866 866 867 867 868 868 868 868 868 868 868 868 869 868
814 816 819 821 823 825 827 828 830 830 832 833 835 837 837 839 841 842 843 844 845 846 847 847 847 848 848 849 850 851 852 854 854 854 855 855 856 857 858 858 859 859 859 860 861 861 861 860 860 860 860 860 860 860 861 861 861 862 862 862 862 863 863 863 863 864 864 865 865 865 866 866 866 867 867 868 868 868 868 868 868 869 869 869 869
814 816 818 821 823 824 827 828 829 830 831 833 834 836 837 839 841 842 843 843 845 847 848 848 849 848 849 850 852 852 853 854 855 855 856 856 857 858 858 859 859 860 860 860 861 861 861 861 860 860 860 861 861 862 862 862 862 862 862 862 863 863 864 864 864 864 865 865 865 866 866 866 867 867 867 867 868 868 868 868 868 869 869 869 868
814 816 818 820 823 824 826 828 829 830 831 833 834 836 837 839 840 842 843 843 844 846 848 849 850 850 850 851 852 853 853 854 855 855 856 857 857 858 859 859 860 861 861 861 862 862 861 860 860 860 861 862 862 862 862 862 862 863 863 863 863 864 864 865 864 864 865 865 865 866 866 867 867 867 867 868 868 868 868 868 868 868 868 868 868
813 816 818 819 822 824 825 827 828 830 832 833 835 836 837 839 840 842 843 844 845 847 848 848 849 850 852 852 853 854 854 855 855 855 856 858 858 858 859 859 860 861 861 861 862 862 861 860 861 861 862 862 862 862 862 863 863 863 863 864 864 864 865 865 865 865 865 865 865 866 867 867 867 867 867 868 868 868 868 868 868 868 868 868 868
814 815 817 819 821 824 826 827 828 830 831 833 835 836 838 839 840 842 843 845 846 847 849 849 849 851 853 853 854 856 856 856 855 854 855 856 857 859 860 860 860 861 861 862 862 862 862 861 861 862 862 862 862 862 862 863 863 863 864 864 864 865 865 865 865 865 865 865 866 866 867 867 867 868 868 868 868 868 868 868 868 868 868 868 867
814 815 817 818 821 823 825 827 828 830 831 833 835 836 837 838 840 842 843 845 846 847 848 850 851 852 853 854 855 857 858 857 856 855 854 855 857 859 860 861 861 862 862 863 863 862 862 862 862 862 862 862 863 862 862 863 863 863 864 864 864 865 865 865 865 866 865 866 866 867 867 867 868 868 868 868 868 868 868 868 868 868 867 867 867
813 815 817 818 820 822 825 827 828 830 831 833 834 836 837 838 840 841 843 844 846 847 848 849 851 852 853 854 855 857 858 859 858 858 858 858 859 860 861 861 862 862 862 863 863 863 863 862 862 862 862 862 863 862 863 863 863 864 864 864 865 865 865 865 865 866 866 866 866 867 867 868 868 868 868 868 868 868 868 868 868 867 867 867 866
812 815 817 818 820 822 825 827 828 830 831 833 834 836 837 838 840 841 843 844 845 846 847 849 850 852 853 853 855 857 859 860 859 859 860 860 861 861 861 862 862 862 863 863 863 863 863 862 862 862 862 862 862 862 863 863 864 864 864 865 865 865 865 865 865 866 866 867 866 867 867 868 868 868 869 868 869 869 868 868 867 867 866 866 866
812 815 817 817 819 822 825 827 828 830 831 833 834 835 837 838 839 841 842 844 845 846 847 849 850 851 853 853 854 856 857 858 858 859 860 861 861 862 862 862 863 863 863 863 863 863 863 862 862 862 862 862 863 863 864 864 864 864 865 865 865 865 865 865 865 866 867 867 867 867 867 868 868 869 869 869 869 868 868 868 867 867 866 866 865
811 814 816 817 819 822 825 826 828 830 831 833 834 835 837 838 839 841 842 844 845 846 848 849 850 851 852 853 853 854 855 856 858 859 859 861 861 861 862 862 863 863 863 863 863 863 863 863 863 862 863 863 864 864 864 864 865 865 865 865 865 865 865 865 866 866 867 867 868 868 868 868 868 868 868 868 868 868 868 867 867 866 866 866 865
811 814 815 817 820 822 824 826 828 830 831 833 834 835 837 837 839 841 842 843 845 846 847 849 850 851 852 852 853 854 855 856 857 858 859 860 861 861 862 862 862 862 863 863 863 863 863 863 863 863 863 863 864 864 864 864 864 865 865 865 865 865 865 865 866 866 866 867 867 868 868 868 868 868 868 868 868 868 868 867 867 866 866 866 865
811 814 815 817 820 822 825 826 828 830 831 833 834 836 837 838 839 840 842 843 844 846 847 848 850 851 852 852 853 854 855 856 857 858 859 860 860 861 862 862 862 862 863 863 863 863 863 863 863 863 864 863 863 864 864 864 864 864 864 865 865 865 865 865 866 866 866 867 867 867 868 868 868 868 867 867 867 867 868 867 867 866 866 865 865
811 813 815 818 819 822 825 826 828 830 832 833 834 836 837 838 839 840 842 843 844 846 846 848 849 851 852 852 853 854 854 855 856 857 858 859 859 860 861 862 862 862 862 863 863 863 863 863 864 864 864 864 863 863 864 864 864 864 864 864 865 865 865 865 865 866 866 866 867 867 867 867 867 867 867 867 867 867 867 867 866 866 865 865 864
811 813 815 817 819 822 824 826 828 830 832 833 834 836 836 838 839 840 842 843 844 845 846 848 849 850 851 852 852 853 854 855 856 857 857 858 859 860 861 862 862 862 862 863 863 863 863 863 864 864 864 864 863 863 864 864 864 864 863 864 864 865 865 865 865 866 866 866 867 867 866 867 866 867 867 867 867 866 866 867 866 865 865 864 864
811 813 815 817 819 821 824 826 828 829 831 833 834 835 836 837 839 840 841 843 844 845 846 848 848 850 851 851 852 853 854 855 856 856 857 858 859 860 861 861 862 862 862 863 863 863 863 864 864 864 864 864 864 864 864 864 864 864 864 864 864 864 864 864 865 865 866 866 866 866 866 866 867 867 867 867 867 866 866 866 865 864 864 864 864
811 814 816 817 819 821 823 825 827 829 830 832 833 834 836 837 838 839 841 842 844 845 846 848 848 849 850 851 851 853 854 855 855 856 857 858 858 859 860 861 862 862 862 863 863 863 864 864 864 865 865 865 865 864 865 865 865 865 865 864 864 864 864 864 865 865 865 866 865 865 865 866 866 866 866 867 867 867 866 865 865 864 864 864 864
811 814 816 817 819 821 823 825 826 828 830 831 833 834 835 836 838 839 840 842 843 845 846 847 848 849 850 850 851 852 853 854 855 855 856 857 858 859 860 861 861 862 862 863 863 864 863 864 864 865 865 865 865 864 865 865 865 865 864 864 864 864 864 864 864 864 864 865 865 865 865 865 865 865 865 866 866 866 866 865 865 865 865 864 863
811 814 816 817 820 821 823 825 826 828 829 831 832 834 835 836 838 839 840 841 843 844 846 847 848 849 850 850 851 852 853 854 855 855 856 857 858 859 860 860 861 862 862 863 863 864 863 864 864 864 865 865 865 865 865 865 865 865 865 866 865 865 866 864 863 863 863 864 864 864 864 864 865 865 865 865 865 865 865 865 865 865 865 864 864
811 813 816 817 819 821 823 824 826 827 829 830 832 833 835 836 838 839 840 841 843 844 845 847 848 849 850 850 851 852 853 854 855 855 856 856 857 859 859 860 861 862 862 862 863 863 863 863 864 864 864 864 865 865 866 865 865 865 866 867 865 866 869 866 862 862 862 862 863 863 863 863 864 865 865 864 864 864 865 865 865 864 864 864 863
810 812 814 816 818 820 823 825 826 827 829 830 832 833 835 837 838 839 840 841 842 843 845 846 847 848 849 850 851 852 852 853 854 855 855 856 857 858 859 860 861 861 861 862 862 862 863 863 863 864 864 864 864 865 866 865 866 866 866 867 868 870 870 865 863 863 861 861 862 862 863 863 863 864 864 864 864 864 864 864 864 864 864 863 863
808 811 813 815 818 820 822 825 826 827 829 830 831 833 834 836 837 839 840 841 842 843 844 845 847 848 849 850 851 851 852 853 854 855 855 856 857 858 859 860 861 861 861 862 862 862 863 863 863 864 864 864 864 865 865 866 866 866 866 867 868 870 867 864 866 866 863 861 861 862 863 862 863 863 863 864 863 864 864 864 863 863 864 864 864
807 810 812 814 816 819 821 824 826 827 828 830 831 833 834 836 837 838 840 841 842 843 844 845 846 847 848 849 850 851 852 852 853 854 855 856 857 858 858 859 860 861 861 861 861 862 862 863 863 864 864 865 865 865 866 866 866 866 866 866 866 866 865 865 866 867 867 864 861 861 862 861 862 862 862 862 863 863 864 864 864 864 864 864 864
804 807 810 813 815 817 820 822 825 826 828 830 831 832 834 835 837 838 840 841 842 843 844 845 845 846 847 848 850 851 851 852 853 853 854 855 856 857 858 858 859 860 861 861 861 861 862 863 863 864 864 865 865 866 866 866 866 867 867 867 867 866 866 865 865 865 867 867 864 861 861 861 861 862 862 862 862 863 864 864 864 864 864 865 864
802 805 807 810 813 816 819 822 824 826 827 829 831 832 834 835 836 837 839 840 841 842 844 844 845 846 847 848 849 850 851 852 853 853 854 855 856 856 857 858 858 859 860 861 861 861 862 863 863 864 864 865 866 866 866 866 867 867 867 867 867 867 866 866 866 865 864 867 867 862 861 862 862 862 863 863 863 863 863 864 864 864 864 864 865
799 803 805 808 812 815 818 821 822 825 826 828 830 831 833 835 836 837 838 839 840 842 843 844 845 846 847 848 849 850 851 851 852 853 854 855 855 856 856 857 858 858 860 860 861 862 862 863 863 864 864 865 866 866 866 867 867 867 868 868 868 867 867 866 866 866 864 866 866 863 861 862 862 863 863 863 863 863 864 864 864 865 865 864 865
799 802 804 807 810 813 817 820 821 823 825 827 829 831 832 834 835 836 837 839 840 841 842 843 844 845 846 847 848 849 850 851 852 853 853 854 855 856 856 857 858 858 859 860 861 862 862 863 863 863 864 865 865 866 866 867 867 867 867 868 868 867 867 867 866 866 865 865 866 864 862 861 862 863 863 863 863 863 864 864 864 864 865 865 864
Wind_Speed
16 16 18 18 17 16 16 15 16 15 14 15 15 16 17 15 14 15 14 13 12 12 12 12 11 11 11 11 11 10 10 10 10 11 12 11 10 11 11 11 12 14 15 14 15 16 15 15 16 17 19 19 19 19 19 20 20 21 21 22 22 22 23 23 24 24 25 23 22 22 17 14 13 13 14 15 16 17 18 18 20 20 18 18 19
17 17 18 19 18 17 17 16 16 15 15 16 17 17 17 15 14 13 12 11 11 10 10 11 11 11 11 11 12 12 12 11 11 12 12 12 11 12 12 12 13 14 14 14 15 16 16 16 17 18 18 18 18 19 19 20 21 20 21 22 22 23 23 23 24 23 25 22 22 23 17 13 12 11 13 15 16 17 17 18 19 19 19 19 19
18 17 18 19 18 17 17 15 15 16 17 17 17 16 15 15 13 12 11 11 10 11 10 11 11 11 11 12 13 14 14 13 14 14 14 14 13 12 13 13 13 14 13 14 16 15 16 17 17 17 18 18 18 18 19 21 21 20 21 22 22 23 23 23 24 24 25 23 22 23 16 12 12 12 13 15 16 17 18 18 19 20 19 19 20
20 17 18 20 19 18 16 16 17 18 18 16 15 15 14 13 12 11 11 11 11 12 12 12 12 12 13 13 15 15 15 15 15 16 15 14 14 13 13 13 13 13 13 14 15 15 15 17 17 17 18 18 18 18 19 21 21 21 21 22 22 23 23 23 24 25 26 24 20 20 17 13 12 13 14 15 16 17 18 19 19 21 21 20 20
22 19 18 19 20 19 18 19 19 18 17 15 15 14 13 12 11 11 11 11 12 13 13 12 12 13 14 15 16 16 16 16 16 16 15 14 13 13 13 13 13 13 13 14 14 15 15 17 17 17 17 17 17 18 20 20 20 20 21 21 23 23 23 22 23 22 24 24 18 20 19 14 13 13 15 16 17 18 18 19 20 21 21 20 20
22 20 18 18 19 19 19 19 18 17 16 15 14 13 12 11 11 11 11 12 12 13 13 13 13 13 15 16 16 16 16 16 16 16 15 14 13 13 13 12 13 14 14 14 14 15 16 17 17 17 17 17 17 18 20 20 20 20 21 21 22 22 22 21 21 21 21 22 19 22 20 13 13 13 14 16 16 18 18 18 19 20 20 20 20
22 21 19 18 18 19 20 19 17 16 15 15 13 12 12 12 11 12 13 13 13 14 14 14 14 14 15 16 16 16 16 16 16 15 15 13 13 13 13 13 13 14 14 14 15 15 16 17 17 17 16 17 18 19 19 20 20 19 20 21 22 21 22 21 21 21 20 21 19 22 21 13 13 13 13 15 16 18 19 19 19 19 19 19 20
21 20 18 20 21 21 20 19 17 15 15 14 12 11 12 12 12 14 14 14 14 14 14 14 14 14 15 15 15 15 15 15 15 15 14 13 14 14 13 13 14 14 14 14 15 16 17 17 17 17 16 17 19 19 19 20 20 19 20 20 21 21 21 20 20 19 19 20 19 21 21 14 13 13 14 15 16 17 17 18 19 19 18 17 18
21 19 19 21 23 22 21 18 16 15 15 13 12 11 12 12 13 15 15 14 14 14 14 14 14 14 14 15 15 14 14 14 14 14 14 14 14 14 14 14 14 14 14 14 15 17 18 17 18 18 16 18 20 19 19 21 21 20 21 20 21 21 20 19 19 20 19 20 18 20 19 15 14 13 13 14 16 16 16 17 18 18 17 17 17
21 20 20 22 23 21 20 18 16 16 15 13 12 13 13 14 14 14 14 14 14 14 14 13 13 13 14 15 14 14 13 14 13 13 14 14 14 14 14 14 14 14 14 15 16 17 17 17 18 17 17 17 20 20 20 21 21 22 22 22 22 21 21 20 20 20 19 18 18 18 17 15 15 14 14 14 15 16 16 17 16 17 17 17 17
22 21 21 22 22 21 20 17 16 16 15 14 13 13 14 14 14 14 14 14 14 14 14 13 12 13 14 14 13 13 13 13 13 13 13 13 14 14 14 14 14 14 15 15 16 17 17 18 18 17 17 17 19 19 19 19 19 21 21 22 23 22 21 20 21 21 20 19 18 18 15 15 16 15 15 15 15 16 16 16 16 16 16 17 17
23 22 22 22 21 20 19 17 17 16 15 14 13 14 14 14 14 14 14 14 14 14 14 13 13 13 13 13 13 13 13 13 13 13 14 14 14 14 15 14 14 15 15 16 16 16 17 18 18 17 17 17 18 17 17 17 17 19 20 20 21 21 21 20 19 19 19 19 18 16 16 16 16 16 15 15 15 15 15 15 15 16 15 16 16
24 23 22 21 19 19 19 18 17 16 15 14 14 14 14 14 14 13 14 15 14 14 14 14 14 13 13 13 13 13 14 13 14 14 14 15 15 15 15 15 15 16 16 16 16 17 17 18 18 17 17 17 16 17 16 16 17 19 19 18 19 19 21 21 19 19 18 18 17 16 17 17 17 16 15 15 15 15 15 15 15 15 14 14 14
26 24 22 21 20 19 19 18 17 15 14 14 14 14 14 13 14 14 15 15 15 14 14 14 13 13 13 13 13 14 14 14 14 14 15 15 15 16 16 16 16 16 16 17 17 17 18 18 19 17 17 17 16 16 16 17 18 19 18 16 17 17 19 20 19 19 18 17 17 17 17 18 17 16 15 14 14 14 14 14 14 14 13 13 13
27 24 22 21 21 20 19 18 17 15 14 15 14 14 14 13 14 15 15 15 14 14 13 13 13 13 13 13 13 14 15 15 14 15 15 15 16 15 16 17 16 16 17 17 18 18 18 18 18 17 16 17 17 16 17 17 18 19 17 15 14 13 14 16 16 17 17 17 17 17 17 17 16 15 15 14 14 13 13 13 13 13 13 12 12
26 25 23 22 22 21 20 18 16 15 15 15 14 14 14 14 15 15 15 14 14 14 13 13 13 13 14 13 13 14 15 14 14 15 15 15 15 15 16 17 17 17 17 17 18 18 18 17 17 17 17 17 17 16 17 17 17 17 16 14 14 13 14 16 16 16 17 16 16 16 16 15 15 14 14 14 13 13 13 13 12 12 12 12 12
26 25 24 22 21 21 19 18 17 16 16 15 14 14 14 14 14 14 14 14 14 13 12 13 14 14 14 14 14 14 14 14 14 15 15 15 15 15 16 17 17 17 17 17 17 17 17 17 17 18 17 17 17 17 17 17 18 17 16 15 16 15 14 16 17 16 16 16 15 15 15 14 14 13 13 13 13 12 12 12 12 11 11 11 11
25 24 24 22 20 19 19 19 17 16 16 16 15 14 14 14 13 13 13 14 14 13 12 12 13 14 15 15 14 14 14 15 15 15 15 16 15 15 16 16 16 17 17 16 16 16 17 17 17 18 17 17 17 17 18 18 18 17 17 17 17 16 14 15 17 16 15 14 14 14 14 13 13 12 12 11 11 11 11 11 11 10 10 10 10
24 24 22 21 20 20 19 19 17 16 16 15 15 15 14 14 13 13 13 13 14 14 13 12 13 14 14 14 14 14 14 14 15 15 15 15 15 15 15 16 16 16 16 16 16 16 16 17 18 18 17 17 17 17 18 20 20 18 18 17 17 16 14 15 16 15 14 13 13 13 13 12 11 11 10 10 10 9 9 9 9 9 9 9 9
23 23 21 21 20 20 19 18 18 17 16 16 16 15 15 14 14 13 13 14 14 14 13 13 14 14 14 14 13 14 14 13 14 14 14 14 15 15 15 15 15 16 16 16 17 17 18 18 18 17 17 17 17 18 19 20 19 17 16 15 15 14 14 14 14 13 13 12 13 13 12 11 11 10 10 9 9 8 8 8 8 8 8 8 8
22 22 22 22 21 20 20 19 18 17 17 17 15 14 15 15 14 14 13 14 14 14 14 14 14 14 14 13 13 14 14 13 13 13 14 14 15 15 15 15 15 15 15 16 18 19 19 18 18 17 17 17 17 18 18 17 16 14 14 13 12 11 12 13 13 13 12 12 13 13 12 11 10 10 9 9 9 8 8 7 7 7 7 7 7
22 22 22 22 21 20 21 21 19 17 17 16 15 14 15 15 15 14 14 15 15 14 14 15 14 14 14 13 13 12 12 12 13 13 12 13 14 15 15 15 16 16 16 18 19 20 20 19 18 18 17 17 17 17 16 15 14 12 11 11 11 11 12 14 13 12 11 11 13 13 12 11 10 10 9 9 8 7 7 7 7 6 6 6 6
22 23 22 21 21 20 20 22 21 18 17 16 16 15 16 16 15 15 14 15 15 15 13 13 13 13 13 12 12 12 11 12 13 13 13 14 14 14 15 16 17 17 18 18 18 18 17 17 17 16 15 14 13 12 13 15 15 13 12 11 10 10 11 13 13 11 10 10 12 12 11 11 10 9 8 8 7 7 7 7 6 6 5 5 4
21 22 22 20 20 20 19 21 22 20 18 17 17 16 16 16 15 16 16 15 15 14 12 11 12 13 13 13 12 12 12 12 13 14 13 14 15 16 16 16 17 17 16 15 15 14 13 12 12 11 10 10 9 7 6 9 11 11 11 10 10 9 9 12 12 11 10 10 11 11 10 10 9 8 8 7 7 6 6 6 6 5 4 4 4
21 21 21 20 19 20 20 20 20 20 20 18 17 16 16 16 16 16 15 14 14 12 11 11 12 13 14 13 12 12 13 14 14 13 13 14 15 15 14 14 14 13 12 11 10 10 10 9 7 7 6 5 7 8 6 6 7 6 8 8 9 10 10 10 11 10 9 9 10 9 8 8 8 8 7 6 6 6 5 5 5 4 3 3 3
21 20 21 21 20 20 20 19 18 19 21 19 17 17 16 14 15 15 14 14 13 13 12 11 12 14 15 14 11 13 14 13 12 13 14 14 14 13 11 10 10 9 9 8 7 8 8 6 4 4 4 3 3 4 6 7 8 8 8 8 9 10 10 10 10 9 7 8 9 8 7 7 8 8 6 6 5 4 4 4 4 3 3 2 2
20 20 20 22 21 20 20 19 18 19 20 19 18 18 18 16 15 16 15 14 13 15 13 11 13 14 15 14 12 13 14 12 13 13 13 13 13 12 10 9 9 9 8 7 6 5 5 5 4 3 3 5 5 7 8 9 9 9 8 8 9 9 9 10 10 8 5 7 8 7 6 6 6 6 6 5 4 4 3 3 3 2 2 1 1
20 20 19 21 21 20 20 20 19 19 19 17 17 17 17 17 17 17 16 13 13 15 14 12 14 14 15 15 13 12 12 13 14 11 10 11 11 11 9 8 8 9 8 8 7 4 4 5 5 4 6 8 8 7 7 8 9 9 8 8 8 9 9 9 9 7 4 5 7 6 5 5 5 5 4 5 4 4 3 2 2 2 1 1 1
20 20 19 20 21 20 20 20 18 18 18 17 18 17 17 17 16 17 16 14 15 16 15 13 12 12 12 12 12 11 10 11 12 11 11 11 11 10 9 9 9 9 8 8 7 6 5 5 5 5 8 8 7 7 7 8 8 8 8 8 8 9 8 8 9 7 4 5 5 4 4 4 4 4 3 3 4 3 3 2 1 1 1 0 1
19 19 18 19 20 21 20 20 19 18 18 16 18 18 17 16 14 15 15 14 15 16 17 16 15 14 12 11 11 10 10 11 12 12 11 12 12 11 10 10 9 8 7 6 7 7 6 7 6 4 5 6 5 6 7 7 7 8 8 8 8 8 8 8 8 8 5 3 4 5 5 4 4 4 3 3 3 3 3 2 1 1 1 1 2
19 18 18 18 19 20 19 19 19 19 17 16 17 17 15 15 14 14 14 14 14 14 15 15 16 16 14 12 12 12 11 13 13 11 10 11 11 10 9 9 8 7 8 8 7 7 7 7 6 4 5 6 5 5 5 6 6 7 8 8 8 8 7 7 8 9 8 4 3 5 5 4 4 3 3 2 2 2 2 1 1 0 1 1 2
19 19 18 17 19 19 18 18 18 17 17 16 17 17 15 14 14 13 13 13 13 13 13 14 15 15 13 12 14 15 13 14 14 13 12 10 9 9 8 8 8 8 9 9 8 7 6 5 5 4 5 6 5 5 4 5 7 7 7 7 7 7 5 5 8 10 8 5 1 3 4 4 4 3 3 3 2 1 1 1 1 1 1 2 3
19 19 18 18 19 19 19 18 17 16 16 15 15 15 15 14 13 12 13 12 11 12 12 13 14 13 12 11 13 14 13 14 14 13 13 11 11 11 10 9 10 9 8 8 8 7 5 5 6 5 4 4 5 5 4 6 7 6 7 6 6 7 5 4 6 8 8 6 4 1 2 3 3 3 3 4 3 2 2 2 1 1 2 2 3
18 19 19 19 19 18 18 17 16 15 15 14 14 14 14 13 12 13 13 11 11 12 11 12 12 12 11 11 12 12 11 12 12 12 11 11 10 10 10 10 9 9 9 9 6 6 5 4 5 4 3 2 3 5 4 5 5 5 7 6 5 6 5 5 6 6 7 7 6 3 1 1 2 2 3 4 4 4 3 2 2 2 2 3 3
19 19 18 18 18 17 16 16 16 15 15 14 14 13 13 12 12 13 12 10 12 11 11 12 12 12 12 10 11 11 11 10 10 11 11 10 9 9 11 10 9 8 8 8 6 4 4 3 2 2 2 1 3 5 5 5 6 6 6 6 6 5 5 6 6 6 6 5 5 4 4 1 2 1 2 1 3 5 4 3 3 3 4 4 4
19 19 19 18 18 17 16 17 17 15 15 14 13 13 12 12 12 13 12 11 12 11 11 13 11 11 11 10 11 11 11 10 9 10 9 10 9 9 10 8 8 9 6 6 6 4 4 2 2 1 2 2 4 6 6 5 6 5 5 6 5 3 5 4 6 7 6 5 5 5 6 3 2 3 4 3 1 2 5 5 4 5 6 6 5
20 20 19 19 19 17 16 17 17 15 15 14 13 13 11 12 12 12 11 11 12 12 11 12 12 11 10 10 11 11 11 11 10 9 8 9 10 10 10 7 7 9 7 5 5 5 3 2 3 2 2 2 2 5 6 4 6 6 5 6 4 3 4 2 4 7 4 4 4 6 7 5 4 3 5 7 4 1 3 4 4 4 5 6 6
20 20 20 20 19 17 16 17 16 15 15 14 14 12 11 11 11 11 12 11 11 12 11 12 12 12 11 10 11 11 11 12 10 9 8 9 10 11 9 8 8 9 7 4 5 5 3 3 3 2 2 2 2 4 5 3 4 6 6 7 3 2 4 2 4 4 3 4 3 5 6 5 4 3 2 7 5 1 2 4 4 3 2 5 7
20 20 20 20 20 18 17 18 17 15 15 15 14 12 12 11 10 10 11 10 11 12 12 12 12 11 11 11 11 11 11 12 9 7 9 10 10 10 8 8 8 8 7 5 5 5 4 4 3 2 1 2 2 3 4 3 4 5 6 7 4 3 3 2 4 2 2 4 3 4 4 3 5 2 2 4 6 2 1 3 5 5 3 2 6
20 21 19 20 21 19 19 19 17 16 15 15 14 12 12 11 10 11 10 10 12 12 12 12 13 12 12 12 12 11 11 11 9 7 9 11 10 8 8 7 6 6 6 5 5 5 4 4 3 2 1 1 1 3 3 4 5 5 3 4 4 3 2 1 4 3 3 5 2 3 3 3 4 3 2 2 4 4 1 4 5 4 3 3 8
20 21 19 20 21 19 20 20 18 18 16 15 14 13 13 11 11 12 10 11 12 12 12 12 13 13 12 12 12 11 11 11 9 8 8 9 10 8 8 8 6 7 6 5 6 6 5 4 3 3 1 1 1 2 4 4 4 3 1 3 4 2 2 2 4 5 4 5 3 2 2 5 5 4 6 4 1 4 5 3 3 2 2 5 8
21 21 19 19 20 19 20 20 19 19 17 16 15 14 13 12 11 11 11 11 10 10 12 12 13 14 13 11 10 10 10 10 10 9 8 8 10 8 7 7 6 7 6 5 5 5 5 3 3 3 1 1 1 2 4 0 1 4 2 2 3 2 1 2 5 5 6 5 5 4 3 6 6 5 7 5 1 1 6 2 2 2 3 6 8
21 21 19 19 20 20 21 20 19 19 16 16 16 14 13 12 11 11 11 11 10 9 11 12 12 13 13 11 11 11 9 9 9 9 9 8 9 8 7 6 7 8 7 6 5 4 5 3 3 2 1 2 3 4 3 3 4 5 2 0 1 1 0 5 6 5 7 6 6 7 4 4 5 4 4 5 3 2 4 4 1 4 3 4 5
21 21 20 19 19 20 21 20 19 18 16 17 16 14 13 12 11 10 9 9 10 9 9 11 12 12 12 11 10 11 10 9 9 8 8 8 8 8 7 6 6 8 7 7 6 5 5 3 3 3 0 0 3 5 3 1 5 4 1 1 2 1 1 3 5 5 4 3 6 6 2 3 6 3 3 4 4 3 4 5 2 4 3 2 3
21 21 21 20 19 19 21 20 18 18 16 17 17 14 14 13 11 11 9 8 10 10 9 10 11 12 12 11 10 10 9 10 9 8 9 9 7 6 8 8 6 7 7 6 5 5 4 4 3 3 2 2 3 4 3 2 4 4 2 1 2 1 1 4 2 2 4 4 6 5 1 4 6 2 3 3 3 3 5 5 3 2 3 3 3
21 21 21 21 19 20 22 20 19 18 16 16 16 15 15 14 12 12 10 9 10 10 10 9 10 11 10 11 11 11 9 9 9 8 9 10 8 6 7 8 7 7 6 5 5 4 4 4 4 3 3 3 4 3 2 3 4 3 1 3 1 1 1 4 3 1 5 7 1 4 2 5 4 3 6 6 4 2 2 4 4 2 1 3 3
22 22 21 21 21 22 23 21 19 18 17 17 16 15 16 15 13 12 11 11 10 10 10 9 10 10 9 11 12 11 10 9 10 9 8 9 8 7 6 7 8 6 4 4 4 4 4 4 5 3 3 5 3 2 2 3 3 1 0 2 2 2 3 1 2 1 2 4 5 3 4 6 4 4 7 8 7 4 2 1 2 3 4 4 3
23 23 22 22 23 24 24 22 21 19 18 18 17 16 16 16 15 13 12 12 10 10 10 9 9 9 9 10 11 11 11 10 10 9 8 9 8 8 8 6 8 7 5 4 4 5 5 5 5 4 4 6 4 2 2 3 2 2 2 2 2 2 2 1 1 2 3 0 3 5 2 4 3 4 2 1 7 5 4 2 1 3 4 4 3
24 24 23 23 24 26 25 22 22 20 19 20 19 17 16 16 15 14 12 12 11 11 11 10 9 9 8 9 10 11 10 10 11 10 9 9 8 8 8 7 6 7 6 5 4 4 6 6 5 5 4 5 4 2 1 2 2 3 3 2 3 2 1 1 3 2 3 1 2 2 4 0 2 5 4 4 4 4 7 5 2 4 3 2 3
23 23 23 23 24 25 26 23 22 21 20 21 21 18 16 15 15 14 13 13 12 11 12 11 9 9 9 9 10 11 10 9 10 10 10 10 9 7 8 8 6 6 5 6 5 5 5 6 5 5 5 5 4 3 2 1 2 1 2 2 1 2 3 2 1 2 2 0 4 3 4 4 1 4 1 2 1 1 4 2 3 4 3 3 2
20 22 22 23 23 24 25 24 23 23 21 22 22 19 17 16 16 15 14 13 12 11 12 12 11 10 10 10 9 10 10 10 10 11 11 10 9 8 8 8 8 7 6 7 7 5 5 5 5 6 5 5 5 3 3 2 2 1 1 3 3 2 1 0 2 2 4 1 3 5 2 0 1 3 3 1 2 2 1 2 3 5 4 4 4
Wind_Direction
129 130 128 126 126 125 123 127 124 122 121 118 115 110 107 102 94 91 93 96 99 96 95 95 94 96 95 92 91 94 97 99 97 96 96 95 95 92 89 85 87 90 90 93 96 97 95 94 95 92 89 89 90 92 92 92 94 96 96 98 102 103 103 102 98 98 97 94 93 88 81 78 78 80 82 83 84 84 84 84 83 83 82 83 84
132 129 127 125 124 125 126 125 120 122 124 119 113 110 105 98 94 96 100 99 97 96 102 104 102 102 100 97 96 100 101 99 96 95 95 94 92 92 91 88 91 93 93 96 99 100 100 99 96 93 91 92 92 92 91 92 95 96 96 99 104 105 104 103 101 100 98 95 93 89 82 80 81 84 91 92 89 88 88 86 84 83 84 84 85
128 126 126 123 121 123 123 121 122 125 123 117 111 108 101 96 99 102 101 98 100 105 110 108 104 102 101 101 98 99 98 94 93 92 91 91 91 92 92 91 94 97 97 98 101 103 104 104 100 96 94 94 93 92 92 92 94 97 99 102 105 105 105 104 103 102 99 95 92 90 85 82 85 90 97 96 91 90 89 87 85 85 84 84 85
126 127 125 124 124 123 123 125 125 123 118 113 109 103 100 103 107 102 100 107 113 112 109 106 105 103 102 101 98 97 95 94 92 89 87 89 91 94 95 97 99 102 102 101 103 105 106 106 99 96 95 96 96 95 94 93 95 99 100 102 102 102 104 105 104 104 101 97 93 94 91 87 89 91 95 94 92 91 88 87 85 84 83 84 85
128 129 126 127 129 127 127 128 123 119 114 110 106 104 107 108 106 105 108 115 117 110 105 106 105 103 101 95 94 96 96 94 90 88 88 89 92 96 101 104 105 105 105 104 103 104 104 102 97 97 99 100 100 98 96 96 99 101 101 101 101 103 104 104 105 106 105 105 107 102 95 93 93 94 95 94 93 91 88 87 84 83 83 83 85
129 130 129 129 131 131 129 126 120 115 111 109 107 109 113 110 109 112 113 114 110 104 102 102 100 96 93 91 92 94 94 92 89 89 91 93 96 99 104 107 108 107 106 104 101 103 102 100 98 99 102 103 102 100 98 100 101 100 100 101 103 103 102 101 103 105 106 111 113 102 96 98 98 95 96 94 93 90 87 85 83 83 83 82 84
129 131 131 132 132 132 129 123 117 113 111 112 113 117 116 113 114 112 110 108 104 101 101 98 95 93 91 91 91 92 91 92 92 92 93 95 98 99 103 107 108 107 106 105 103 104 103 101 102 102 104 106 104 101 101 104 104 102 101 103 103 101 98 96 100 103 104 108 108 101 101 104 101 98 96 94 92 90 88 85 83 82 82 82 83
129 130 129 134 133 130 125 119 117 116 117 118 120 119 115 113 111 106 103 100 99 98 98 96 96 95 93 92 90 90 89 89 90 91 94 95 97 99 100 102 103 104 105 104 104 103 102 102 103 105 108 107 102 100 102 103 102 104 103 102 102 99 97 96 99 104 104 105 107 105 106 109 104 100 96 94 93 90 88 88 87 86 86 85 85
129 128 129 133 132 128 122 120 123 123 123 124 124 118 113 111 104 99 98 97 97 96 96 96 98 96 95 94 91 91 89 87 87 91 96 98 100 100 99 100 101 103 104 103 102 102 104 104 104 105 105 101 98 97 99 100 102 105 105 105 104 101 100 100 101 104 102 103 108 106 108 111 107 103 100 97 95 92 89 88 89 89 90 89 87
129 128 131 134 132 126 122 124 127 127 127 125 122 118 113 107 102 98 98 99 98 98 100 99 98 97 96 95 94 94 92 90 91 93 97 99 100 99 99 100 101 104 105 104 103 103 104 104 103 103 100 97 96 96 97 99 105 106 105 106 105 102 100 103 105 104 103 104 106 104 106 110 106 104 102 98 93 92 90 89 89 90 89 88 88
130 129 131 134 132 125 124 128 130 131 128 123 119 117 111 106 104 102 101 101 101 101 103 104 100 95 95 96 98 98 95 93 93 94 94 95 96 98 100 100 101 103 105 104 104 103 104 103 102 102 102 100 98 98 97 100 105 103 103 103 102 102 101 104 104 101 102 105 104 101 103 106 105 104 102 98 92 91 90 89 90 90 89 87 87
129 129 132 135 131 127 129 132 134 132 126 123 119 115 110 109 107 105 105 103 102 103 105 108 105 97 97 100 100 100 97 96 95 94 92 92 94 97 99 100 102 103 106 105 104 105 104 103 103 104 103 101 100 99 99 104 106 104 104 103 100 100 99 101 102 100 99 99 102 103 105 104 104 105 103 98 93 91 90 89 89 89 88 87 86
129 130 133 135 132 132 135 136 136 132 127 124 120 116 112 112 110 107 108 106 104 104 107 110 110 106 105 105 105 104 101 98 96 93 90 91 94 95 97 100 102 103 106 107 106 106 105 105 106 106 104 103 102 101 105 109 109 107 106 103 100 96 97 100 103 105 102 100 103 104 105 104 103 103 101 96 92 91 90 89 89 89 88 87 87
131 133 134 135 135 136 137 138 137 132 129 125 121 119 116 115 110 106 105 107 108 107 109 112 112 111 110 109 108 107 104 100 96 94 91 92 94 95 97 99 101 102 105 107 108 108 107 108 108 109 108 108 107 107 111 113 113 112 110 109 106 98 96 100 100 101 103 105 107 105 103 103 103 101 98 95 92 91 90 89 88 88 87 87 86
133 134 134 134 135 136 138 138 136 131 129 124 122 120 118 114 108 108 108 108 108 107 109 111 111 111 110 107 106 106 103 99 96 94 92 93 94 95 97 99 101 103 105 107 108 108 109 110 111 112 112 112 112 112 114 115 117 117 117 115 111 107 103 105 104 102 104 105 105 106 105 102 102 100 97 95 93 91 90 88 88 88 88 88 87
133 133 132 133 136 137 137 136 132 129 127 121 120 119 116 112 108 110 110 109 108 109 111 111 110 111 110 107 107 105 101 99 96 95 93 93 94 95 97 100 103 104 105 108 110 110 111 113 116 117 117 116 116 115 114 115 118 119 116 107 103 109 117 116 112 109 109 107 105 104 103 102 100 97 95 93 92 91 90 89 89 89 89 89 89
133 132 132 135 137 136 135 134 132 128 124 120 119 116 114 113 111 112 112 111 111 111 112 114 114 115 114 111 109 106 103 101 98 96 95 94 95 95 96 100 103 104 108 110 111 112 115 118 121 120 119 118 118 117 116 117 119 117 109 104 105 108 118 120 113 110 109 106 104 104 104 103 100 97 96 94 93 91 90 90 89 89 90 90 89
133 133 134 136 135 134 135 134 131 128 123 121 120 118 118 117 115 115 114 113 115 116 116 117 117 117 114 111 110 107 105 103 99 97 95 96 97 97 98 101 105 107 110 111 112 114 118 120 121 120 118 117 118 119 118 120 121 116 109 109 109 107 113 117 111 108 107 106 109 110 107 104 102 99 98 97 96 94 92 91 91 91 90 90 90
133 134 135 135 135 134 135 135 133 131 127 125 123 123 122 120 118 118 117 118 118 118 119 118 118 116 112 110 110 108 107 106 102 96 94 96 98 100 101 103 108 110 112 113 116 117 118 118 118 117 116 116 118 116 114 117 119 116 116 116 114 110 109 109 107 107 107 110 116 114 108 106 106 104 103 101 98 96 95 93 91 89 87 86 86
135 137 137 135 136 136 135 136 135 132 130 128 127 127 126 123 120 120 120 120 119 119 120 119 118 115 111 110 110 110 110 109 103 97 94 96 98 100 102 105 108 112 114 116 117 116 116 115 115 115 115 116 116 114 113 115 117 117 118 120 117 115 115 111 109 109 111 117 119 115 111 110 108 106 106 104 101 99 97 95 92 88 85 84 82
139 137 135 136 137 138 139 138 137 136 135 131 129 129 128 125 122 122 120 122 123 124 123 121 118 116 115 114 113 112 110 109 106 99 96 98 99 100 103 107 109 112 116 118 119 117 116 115 114 115 115 115 114 113 113 112 111 111 113 110 101 106 118 115 112 112 113 122 123 117 115 113 110 108 107 106 104 101 100 99 97 95 90 88 85
140 133 132 138 139 141 142 139 138 139 138 132 129 131 130 128 127 125 122 125 128 127 125 122 120 121 120 119 116 113 112 113 110 104 100 101 103 103 105 108 110 112 113 114 116 115 115 115 113 113 112 111 111 113 114 112 106 104 103 96 91 103 117 113 112 116 120 129 126 121 120 117 114 111 109 106 104 103 103 103 100 99 96 94 91
139 133 135 140 140 145 144 139 139 139 137 132 132 133 132 132 133 132 129 130 131 130 129 127 127 130 129 125 121 118 119 116 114 114 108 104 105 106 106 108 110 111 111 111 111 111 110 112 113 114 115 113 113 116 116 116 113 107 97 91 100 112 116 115 115 118 126 134 128 123 123 120 118 115 112 108 108 109 107 107 104 103 101 98 97
141 136 137 141 143 148 145 142 144 142 139 136 137 140 140 139 138 138 138 137 134 133 135 135 134 137 135 127 124 122 120 117 115 116 110 105 106 108 108 108 110 110 109 109 110 111 111 116 121 123 129 129 138 158 151 135 126 115 107 105 114 115 111 117 118 121 132 136 129 126 127 124 123 119 115 113 114 115 114 117 111 104 101 97 98
142 138 139 142 145 146 143 143 146 147 144 140 142 146 144 141 144 145 142 143 142 143 153 150 138 138 132 123 125 129 127 121 118 120 119 114 112 112 112 113 115 114 111 112 114 115 116 121 128 130 135 144 166 184 184 164 146 122 118 119 122 119 115 117 121 131 142 142 134 132 132 130 131 128 127 127 121 118 117 120 113 102 97 90 85
142 141 141 143 146 145 144 144 146 150 148 145 147 149 148 147 153 153 149 152 152 152 164 157 137 135 131 126 129 136 133 128 132 137 133 129 127 124 125 130 128 121 121 123 121 119 120 131 155 141 124 140 174 148 121 124 125 114 115 117 116 115 116 121 129 140 145 143 141 141 144 141 140 141 142 142 134 128 121 115 110 101 92 78 68
142 142 143 143 145 147 146 145 146 150 149 150 151 151 152 155 157 155 157 157 151 155 164 153 138 137 134 136 141 141 137 139 149 150 144 138 134 136 138 142 139 129 128 133 137 130 119 134 161 174 147 133 123 112 101 104 110 111 112 112 113 113 116 122 133 141 129 136 147 151 154 152 151 154 154 150 148 147 139 129 123 116 109 80 59
142 143 146 144 145 148 149 147 148 149 147 147 150 152 151 153 155 153 157 157 152 158 159 142 138 143 137 142 148 144 141 144 148 150 156 149 135 138 138 133 132 130 127 126 138 141 113 113 120 148 148 127 116 115 114 113 113 113 112 108 110 111 114 119 132 140 105 110 140 157 166 166 165 167 167 163 163 166 160 155 151 138 133 107 38
144 144 148 147 145 148 150 150 149 146 145 146 149 153 152 152 152 150 156 165 164 160 153 139 135 136 131 140 147 147 151 146 141 143 151 146 133 132 132 131 123 121 122 112 119 119 103 110 111 123 131 120 108 114 123 122 118 119 119 115 111 110 115 121 130 136 103 80 108 145 169 177 178 177 182 183 172 171 171 167 172 151 143 239 311
145 145 149 148 145 147 150 150 149 148 148 147 147 150 152 154 155 153 157 160 158 151 147 145 140 133 132 147 152 153 156 148 142 140 134 123 122 126 129 132 124 121 129 121 125 118 108 117 109 94 110 119 111 112 123 121 117 124 125 121 119 118 120 125 127 131 130 98 88 119 147 161 173 182 186 191 174 172 183 186 200 200 196 273 296
147 148 149 148 146 147 149 149 149 151 150 148 149 150 149 151 155 152 148 147 148 146 144 141 137 134 135 144 151 153 146 143 143 131 118 112 122 139 136 130 133 140 136 128 124 111 110 113 98 83 94 99 99 106 116 114 115 120 122 122 122 125 129 138 139 132 138 141 84 101 118 128 145 157 158 161 158 157 170 176 191 238 275 307 315
151 150 148 151 151 147 146 149 150 150 150 148 150 152 148 148 151 145 141 143 146 145 139 130 127 130 130 124 134 145 140 140 143 133 134 137 138 149 148 139 139 138 125 116 114 108 116 107 91 105 101 84 86 103 109 106 113 117 115 117 119 123 133 148 141 128 133 154 125 91 96 100 110 115 119 118 110 110 104 91 57 12 350 346 340
152 149 150 157 154 147 147 151 149 148 147 146 147 147 146 148 148 142 142 144 142 138 131 125 125 130 129 121 124 133 135 136 137 134 138 141 138 141 145 140 129 129 127 125 129 126 128 116 98 93 92 98 96 96 107 109 114 119 111 110 112 114 115 114 119 120 128 146 161 144 63 62 75 87 87 80 76 75 76 65 52 32 10 3 352
149 148 156 159 151 146 150 150 148 149 147 145 146 145 146 149 144 144 146 146 143 136 126 125 129 129 129 132 128 127 128 126 130 135 134 132 135 140 142 138 132 139 145 141 137 120 115 111 98 76 62 123 104 83 109 121 112 108 106 107 107 108 109 101 103 112 118 130 148 166 187 1 22 61 68 68 65 52 53 52 43 41 26 18 4
147 152 161 155 146 147 152 150 149 151 148 146 148 149 150 149 145 148 151 145 140 137 134 135 133 133 134 137 133 130 127 121 123 129 132 135 137 140 142 142 141 144 146 140 133 128 126 109 104 74 21 88 116 90 96 111 103 98 99 100 102 108 112 109 115 119 116 123 137 155 171 208 310 328 354 32 63 48 44 45 50 58 47 36 28
149 156 158 149 145 151 153 150 152 152 148 147 149 151 152 149 147 151 151 147 142 137 145 147 138 136 138 136 134 133 132 129 125 118 119 132 135 136 139 143 143 140 144 132 128 143 131 112 153 113 42 74 117 105 96 99 104 105 108 107 108 118 114 120 131 123 120 135 145 150 152 164 203 224 254 259 258 42 40 40 53 65 58 47 35
152 157 154 149 149 153 155 153 153 151 147 148 149 149 150 148 150 152 149 151 147 137 145 150 142 138 138 139 138 135 140 142 136 125 117 125 132 135 138 143 143 140 142 127 123 131 115 135 156 111 61 40 79 110 117 125 126 127 125 114 98 91 105 113 118 112 118 144 171 168 158 174 171 172 223 225 226 256 24 26 38 47 52 48 35
154 156 154 153 152 154 156 154 152 150 148 149 149 148 150 150 154 154 145 145 145 141 147 149 144 143 144 146 141 138 147 146 135 126 123 124 127 133 140 144 142 141 139 131 129 129 129 155 150 127 74 46 49 92 104 105 117 122 121 114 101 95 106 117 122 125 169 146 149 162 161 195 176 107 213 209 210 216 9 1 355 320 357 45 32
156 156 156 155 153 155 154 152 153 151 150 152 152 151 153 157 158 155 152 148 143 145 152 151 147 146 146 151 146 141 146 144 138 128 129 129 122 126 137 137 141 152 149 144 145 146 145 134 138 162 65 52 46 69 89 78 65 77 95 104 105 112 102 139 157 158 178 142 142 174 163 177 180 152 84 176 201 193 85 353 343 304 270 11 4
156 155 158 155 153 156 153 154 157 155 154 155 157 156 159 166 161 158 162 157 152 153 155 153 152 148 148 153 152 151 148 145 149 139 133 133 126 131 137 132 138 149 149 146 144 151 142 114 123 157 108 54 75 75 80 73 76 69 70 101 111 141 130 168 184 175 143 138 154 208 189 136 152 187 147 146 198 187 171 348 333 288 262 319 334
156 155 162 157 155 158 155 158 162 159 161 162 164 164 166 172 165 163 166 159 158 160 158 154 151 149 152 154 153 157 149 146 154 144 133 132 132 139 138 138 147 147 149 145 137 146 140 122 137 157 174 189 167 115 90 78 108 100 24 104 110 141 130 124 196 190 159 161 168 167 196 173 157 166 168 157 115 188 218 327 355 244 271 327 324
158 159 166 162 159 161 158 162 163 162 167 168 169 169 170 173 168 169 170 162 162 163 159 154 149 148 154 153 148 153 151 151 156 146 143 139 135 140 138 144 153 156 160 136 130 145 137 133 153 162 189 151 107 96 108 117 133 107 63 75 91 107 126 214 221 190 169 181 184 161 191 201 183 168 173 183 61 154 206 186 94 221 283 315 312
161 164 169 164 162 163 162 165 164 164 170 171 173 172 171 175 172 174 174 166 167 168 160 153 149 147 152 158 154 156 156 154 153 148 149 146 141 146 152 154 150 159 170 152 151 163 141 134 134 136 205 150 114 95 112 313 22 90 128 25 139 137 231 248 239 212 184 179 189 183 193 196 158 141 178 209 210 178 191 186 267 281 291 304 304
165 167 170 168 166 165 164 169 168 168 171 172 174 172 172 177 173 175 176 166 166 168 163 155 152 151 154 161 162 160 159 154 156 158 150 145 147 151 157 159 152 160 170 162 162 162 151 159 145 130 252 134 119 119 127 18 38 58 120 307 313 15 12 249 224 215 198 182 194 185 202 176 131 129 238 220 201 199 192 186 266 308 321 310 311
169 171 173 171 171 167 166 172 173 171 173 173 173 172 173 175 172 173 170 163 168 171 171 163 155 158 161 162 162 163 164 157 159 165 153 149 157 153 151 155 162 165 162 168 170 162 169 181 162 138 112 61 90 119 123 92 73 51 53 63 351 1 355 328 301 235 302 289 190 142 81 176 133 141 234 207 195 191 185 193 226 290 323 330 335
173 175 176 175 173 169 169 173 173 174 176 174 173 172 171 173 174 175 167 164 176 175 177 174 161 165 170 165 165 169 172 164 161 172 161 157 164 157 150 155 167 172 159 167 171 163 179 174 160 146 115 91 81 100 90 82 98 79 100 134 104 137 135 333 332 299 304 311 46 102 169 189 159 170 188 191 190 148 156 204 211 200 356 3 355
176 177 178 178 174 170 171 174 175 176 176 175 176 173 172 174 176 179 172 170 180 180 180 183 172 176 176 167 166 169 176 170 164 177 173 162 163 160 165 162 161 174 167 160 164 168 175 158 161 173 133 123 94 54 23 61 107 147 201 114 67 59 93 340 323 41 294 327 352 326 186 179 193 187 196 186 153 98 65 190 197 152 99 43 8
177 179 180 179 174 170 172 174 176 177 177 178 179 177 176 176 177 181 181 177 182 182 184 188 182 184 180 167 167 169 175 174 167 177 177 169 169 165 175 174 159 168 176 177 182 177 169 153 164 176 150 145 130 79 35 40 62 69 50 53 33 58 105 97 28 341 295 319 317 314 84 134 142 103 332 143 124 118 117 103 278 147 97 34 7
178 180 181 179 172 169 173 175 176 178 179 179 180 180 180 180 181 183 184 186 188 182 183 193 186 182 180 169 169 168 171 179 177 179 176 174 181 169 170 181 167 159 171 193 197 175 162 159 166 165 159 161 150 142 114 52 9 40 56 48 23 7 291 125 139 236 302 34 284 318 86 168 123 92 0 23 85 119 113 101 120 126 91 58 45
180 181 182 179 172 169 172 176 177 178 180 181 180 181 182 182 186 186 185 189 192 181 182 194 187 179 182 175 171 169 171 182 182 181 182 180 184 176 171 183 174 160 180 194 185 177 168 163 168 167 170 171 164 180 172 165 292 6 78 120 80 333 337 24 63 286 310 329 294 301 159 205 144 103 41 13 24 155 100 106 155 104 54 95 71
183 181 182 179 173 170 173 176 179 179 180 182 181 182 184 184 188 191 189 189 190 182 183 191 186 183 187 180 177 177 177 185 183 181 184 181 181 179 177 183 177 174 188 179 169 183 179 170 179 175 172 173 169 184 199 210 241 245 174 155 178 221 195 278 260 316 337 351 317 316 310 228 127 135 140 103 274 227 120 281 161 109 53 53 359